Stations météo

Publicité
Edinburgh/Gogarbank, Grande-Bretagne (3166): Température de l'air & dewpoint: 04.08.2020 00:00:00 - 10.08.2020 00:00:00 (BST)Edinburgh/Gogarbank, Grande-Bretagne (3166): Température de l'air -20cm & Température de l'air -100cm: 04.08.2020 00:00:00 - 10.08.2020 00:00:00 (BST)Edinburgh/Gogarbank, Grande-Bretagne (3166): Vitesse du vent & gusts: 04.08.2020 00:00:00 - 10.08.2020 00:00:00 (BST)Edinburgh/Gogarbank, Grande-Bretagne (3166): Direction du vent: 04.08.2020 00:00:00 - 10.08.2020 00:00:00 (BST)Edinburgh/Gogarbank, Grande-Bretagne (3166): reduced air pressure: 04.08.2020 00:00:00 - 10.08.2020 00:00:00 (BST)Edinburgh/Gogarbank, Grande-Bretagne (3166): visibility: 04.08.2020 00:00:00 - 10.08.2020 00:00:00 (BST)Edinburgh/Gogarbank, Grande-Bretagne (3166): Ensoleillement: 04.08.2020 00:00:00 - 10.08.2020 00:00:00 (BST)Edinburgh/Gogarbank, Grande-Bretagne (3166): Quantités de précipitations: 04.08.2020 00:00:00 - 10.08.2020 00:00:00 (BST)
Date & Time tt [°C] td [°C] tt -20cm [°C] tt -100cm [°C] ff [km/h] ff [knt] fx [km/h] fx [knt] dd ppp [hPa] vv [km] sd [min] rr [mm]
10.08.2020 00:00:00 13,8 12,6 - - 13 7 - - ENE 1022,0 16 0 0,0
09.08.2020 23:00:00 13,6 12,4 - - 13 7 - - ENE 1022,2 14 0 0,0
09.08.2020 22:00:00 13,9 12,3 - - 16 9 - - ENE 1022,4 17 0 0,0
09.08.2020 21:00:00 14,1 12,2 - - 16 9 - - ENE 1022,3 19 0 0,0
09.08.2020 20:00:00 15,0 12,3 - - 16 9 - - ENE 1022,3 24 0 0,0
09.08.2020 19:00:00 15,4 12,2 - - 21 11 - - E 1022,2 24 - 0,0
09.08.2020 18:00:00 16,0 12,5 - - 21 11 - - ENE 1022,2 16 24 0,0
09.08.2020 17:00:00 17,2 13,0 - - 22 12 - - ENE 1022,5 22 54 0,0
09.08.2020 16:00:00 17,8 13,2 - - 22 12 - - ENE 1022,9 22 60 0,0
09.08.2020 15:00:00 18,5 13,9 - - 22 12 - - ENE 1023,2 26 42 0,0
09.08.2020 14:00:00 17,4 13,2 - - 21 11 - - NE 1023,7 27 48 0,0
09.08.2020 13:00:00 17,1 12,5 - - 21 11 - - NE 1024,2 17 60 0,0
09.08.2020 12:00:00 16,4 12,3 - - 22 12 - - ENE 1024,4 35 48 0,0
09.08.2020 11:00:00 15,8 11,8 - - 21 11 - - ENE 1025,0 26 24 0,0
09.08.2020 10:00:00 14,5 11,1 16,2 14,4 18 10 - - E 1025,4 30 6 0,0
09.08.2020 09:00:00 13,6 11,6 - - 15 8 - - E 1025,9 20 0 0,0
09.08.2020 08:00:00 12,6 10,7 - - 13 7 - - E 1026,0 24 0 0,0
09.08.2020 07:00:00 11,8 9,7 - - 11 6 - - E 1026,1 30 0 0,0
09.08.2020 06:00:00 11,6 10,5 - - 9 5 - - E 1026,0 17 0 0,0
09.08.2020 05:00:00 11,5 10,4 - - 8 4 - - E 1026,0 21 0 0,0
09.08.2020 04:00:00 11,2 10,4 - - 9 5 - - E 1026,3 23 0 0,0
09.08.2020 03:00:00 7,8 6,6 - - 2 1 - - S 1026,5 40 0 0,0
09.08.2020 02:00:00 9,8 7,7 - - 8 4 - - E 1026,4 50 0 0,0
09.08.2020 01:00:00 10,7 7,8 - - 8 4 - - ENE 1026,4 50 - 0,0
09.08.2020 00:00:00 11,0 9,0 - - 8 4 - - ENE 1026,4 50 0 0,0
08.08.2020 23:00:00 11,2 10,4 - - 4 2 - - W 1026,2 14 0 0,0
08.08.2020 22:00:00 11,9 10,4 - - 4 2 - - ENE 1026,1 22 0 0,0
08.08.2020 21:00:00 14,9 11,0 - - 5 3 - - NNE 1025,7 35 42 0,0
08.08.2020 20:00:00 18,1 11,1 - - 13 7 - - E 1025,3 50 60 0,0
08.08.2020 19:00:00 19,5 11,1 - - 13 7 - - ENE 1025,0 45 60 0,0
08.08.2020 18:00:00 19,7 10,0 - - 15 8 - - ENE 1025,1 50 60 0,0
08.08.2020 17:00:00 20,5 9,7 - - 13 7 - - ENE 1025,1 45 60 0,0
08.08.2020 16:00:00 20,9 9,6 - - 11 6 - - NE 1025,2 40 60 0,0
08.08.2020 15:00:00 20,5 9,8 - - 11 6 - - NE 1025,2 40 60 0,0
08.08.2020 14:00:00 19,8 10,0 - - 11 6 - - NNE 1025,3 40 60 0,0
08.08.2020 13:00:00 19,9 10,8 - - 8 4 - - NNE 1025,2 26 60 0,0
08.08.2020 12:00:00 18,6 9,6 - - 5 3 - - NNW 1025,1 35 60 0,0
08.08.2020 11:00:00 17,7 9,6 - - 8 4 - - E 1025,0 40 60 0,0
08.08.2020 10:00:00 16,1 10,3 16,2 14,2 4 2 - - NNW 1024,8 28 60 0,0
08.08.2020 09:00:00 14,3 10,1 - - 5 3 - - W 1024,9 50 60 0,0
08.08.2020 08:00:00 13,0 10,2 - - 5 3 - - WSW 1024,4 35 60 0,0
08.08.2020 07:00:00 11,3 9,6 - - 9 5 - - SSW 1023,9 45 36 0,0
08.08.2020 06:00:00 10,3 9,3 - - 13 7 - - SW 1023,2 40 0 0,0
08.08.2020 05:00:00 10,1 9,0 - - 9 5 - - SW 1022,7 45 0 0,0
08.08.2020 04:00:00 10,6 9,3 - - 11 6 - - SSW 1022,1 40 0 0,0
08.08.2020 03:00:00 10,7 9,6 - - 13 7 - - SW 1021,4 35 0 0,0
08.08.2020 02:00:00 11,5 10,0 - - 5 3 - - SSW 1020,9 45 0 0,0
08.08.2020 01:00:00 12,5 11,0 - - 11 6 - - WSW 1020,3 50 - 0,0
08.08.2020 00:00:00 13,5 12,1 - - 11 6 - - WSW 1019,9 50 0 0,0
07.08.2020 23:00:00 14,6 13,1 - - 11 6 - - WSW 1018,9 50 0 0,0
07.08.2020 22:00:00 15,7 14,4 - - 9 5 - - SW 1018,2 50 0 0,0
07.08.2020 21:00:00 16,0 14,5 - - 11 6 - - SW 1017,5 50 0 0,4
07.08.2020 20:00:00 19,1 15,6 - - 18 10 - - SW 1016,2 17 6 0,0
07.08.2020 19:00:00 20,0 15,2 - - 24 13 - - SW 1015,6 50 24 0,0
07.08.2020 18:00:00 22,1 15,7 - - 22 12 - - SW 1015,1 50 30 0,0
07.08.2020 17:00:00 21,8 15,7 - - 15 8 - - SSW 1014,9 50 18 0,0
07.08.2020 16:00:00 22,3 16,2 - - 11 6 - - SSW 1015,0 50 6 0,0
07.08.2020 15:00:00 21,7 15,7 - - 16 9 - - SSW 1015,4 50 0 0,0
07.08.2020 14:00:00 19,9 16,8 - - 13 7 - - WSW 1015,5 30 6 0,2
07.08.2020 13:00:00 21,8 15,8 - - 16 9 - - SW 1015,5 45 0 0,0
07.08.2020 12:00:00 20,7 15,2 - - 11 6 - - SW 1015,6 50 0 0,0
07.08.2020 11:00:00 19,8 14,6 - - 9 5 - - S 1016,1 35 0 0,0
07.08.2020 10:00:00 20,0 14,6 16,0 14,2 11 6 - - SSW 1016,1 50 0 0,0
07.08.2020 09:00:00 18,5 14,0 - - 13 7 - - S 1016,1 50 0 0,0
07.08.2020 08:00:00 17,5 13,8 - - 13 7 - - S 1015,6 45 0 0,0
07.08.2020 07:00:00 17,0 13,9 - - 11 6 - - S 1015,6 50 0 0,0
07.08.2020 06:00:00 16,9 13,8 - - 13 7 - - S 1015,4 50 0 0,0
07.08.2020 05:00:00 15,9 13,6 - - 9 5 - - SW 1015,0 50 0 0,0
07.08.2020 04:00:00 15,8 13,1 - - 15 8 - - SSW 1015,3 50 0 0,0
07.08.2020 03:00:00 15,7 12,9 - - 8 4 - - WSW 1015,1 50 0 0,0
07.08.2020 02:00:00 15,8 12,8 - - 11 6 - - SSW 1015,1 50 0 0,0
07.08.2020 01:00:00 15,6 12,6 - - 11 6 - - SW 1015,2 50 - 0,0
07.08.2020 00:00:00 15,9 13,0 - - 11 6 - - SSW 1014,8 50 0 0,0
06.08.2020 23:00:00 16,7 13,6 - - 16 9 - - SW 1015,0 50 0 0,0
06.08.2020 22:00:00 17,9 14,5 - - 13 7 - - WSW 1014,9 50 0 0,0
06.08.2020 21:00:00 18,0 14,2 - - 8 4 - - SSW 1014,4 50 12 0,0
06.08.2020 20:00:00 19,4 14,4 - - 15 8 - - SSW 1014,1 50 6 0,0
06.08.2020 19:00:00 21,0 14,6 - - 13 7 - - SSW 1013,6 45 0 0,0
06.08.2020 18:00:00 22,0 14,3 - - 8 4 - - SSW 1013,8 45 12 0,0
06.08.2020 17:00:00 21,4 14,3 - - 5 3 - - S 1014,2 45 0 0,0
06.08.2020 16:00:00 21,7 14,2 - - 15 8 - - SSW 1014,4 40 18 0,0
06.08.2020 15:00:00 21,0 14,6 - - 8 4 - - NNE 1014,4 40 0 0,0
06.08.2020 14:00:00 20,6 14,3 - - 9 5 - - NE 1014,5 45 24 0,0
06.08.2020 13:00:00 20,6 13,7 - - 9 5 - - WSW 1014,5 45 12 0,0
06.08.2020 12:00:00 20,4 14,5 - - 9 5 - - WSW 1014,6 25 18 0,0
06.08.2020 11:00:00 18,4 13,1 - - 5 3 - - SSW 1014,6 30 42 0,0
06.08.2020 10:00:00 17,3 12,4 15,7 14,2 8 4 - - SW 1014,6 35 60 0,0
06.08.2020 09:00:00 16,5 12,0 - - 8 4 - - WSW 1014,6 45 60 0,0
06.08.2020 08:00:00 15,4 12,7 - - 8 4 - - SW 1014,2 30 54 0,0
06.08.2020 07:00:00 12,8 11,9 - - 5 3 - - NW 1013,5 45 48 0,0
06.08.2020 06:00:00 11,7 11,1 - - 9 5 - - S 1012,7 40 0 0,0
06.08.2020 05:00:00 12,1 11,4 - - 11 6 - - SW 1012,4 45 0 0,0
06.08.2020 04:00:00 12,5 11,8 - - 9 5 - - WSW 1012,0 50 0 0,0
06.08.2020 03:00:00 12,4 11,7 - - 8 4 - - SW 1011,3 40 0 0,0
06.08.2020 02:00:00 13,8 12,8 - - 8 4 - - SW 1010,5 45 0 0,0
06.08.2020 01:00:00 15,4 14,1 - - 13 7 - - WSW 1009,8 50 - 0,0
06.08.2020 00:00:00 15,6 14,5 - - 15 8 - - WSW 1008,8 45 0 0,0
05.08.2020 23:00:00 15,8 14,7 - - 13 7 - - WSW 1008,0 50 0 0,0
05.08.2020 22:00:00 16,2 15,2 - - 13 7 - - W 1007,1 50 0 0,0
05.08.2020 21:00:00 16,9 15,8 - - 13 7 - - W 1006,0 3,2 0 0,0
05.08.2020 20:00:00 18,5 15,4 - - 13 7 - - WSW 1005,0 45 12 0,0
05.08.2020 19:00:00 18,3 16,1 - - 11 6 - - WSW 1004,2 35 6 0,0
05.08.2020 18:00:00 18,7 16,0 - - 13 7 - - WSW 1003,7 35 0 0,0
05.08.2020 17:00:00 17,7 16,2 - - 15 8 - - SW 1003,8 40 0 1,4
05.08.2020 16:00:00 16,8 16,1 - - 2 1 - - SW 1003,8 3,8 0 2,0
05.08.2020 15:00:00 16,8 16,2 - - 4 2 - - NW 1003,4 3,0 0 2,0
05.08.2020 14:00:00 16,5 15,1 - - 8 4 - - W 1003,7 3,8 0 0,0
05.08.2020 13:00:00 17,6 13,9 - - 11 6 - - WSW 1002,9 30 0 0,0
05.08.2020 12:00:00 17,5 14,4 - - 9 5 - - WNW 1002,3 45 0 0,0
05.08.2020 11:00:00 17,2 13,7 - - 13 7 - - WSW 1002,0 45 0 0,0
05.08.2020 10:00:00 16,3 14,0 15,2 14,2 11 6 - - WSW 1002,0 50 0 0,0
05.08.2020 09:00:00 15,6 13,5 - - 9 5 - - WSW 1001,8 45 0 0,0
05.08.2020 08:00:00 14,8 12,9 - - 9 5 - - W 1001,4 40 0 0,0
05.08.2020 07:00:00 14,7 12,7 - - 13 7 - - WSW 1001,3 50 0 0,0
05.08.2020 06:00:00 14,4 12,8 - - 11 6 - - WSW 1000,7 40 0 0,0
05.08.2020 05:00:00 14,3 12,7 - - 15 8 - - WSW 1000,2 40 0 0,0
05.08.2020 04:00:00 14,5 13,1 - - 16 9 - - WSW 1000,0 45 0 0,0
05.08.2020 03:00:00 14,4 13,7 - - 15 8 - - W 999,7 22 0 0,4
05.08.2020 02:00:00 14,7 14,2 - - 15 8 - - W 999,1 6 0 0,2
05.08.2020 01:00:00 14,8 14,1 - - 24 13 - - W 998,7 2,6 - 2,0
05.08.2020 00:00:00 17,6 15,1 - - 29 16 48 26 SW 997,4 50 0 0,0
04.08.2020 23:00:00 17,2 15,0 - - 24 13 46 25 SW 997,6 50 0 0,0
04.08.2020 22:00:00 16,7 15,1 - - 28 15 54 29 SW 998,0 45 0 0,0
04.08.2020 21:00:00 16,4 15,2 - - 28 15 54 29 SSW 998,3 4,6 0 0,2
04.08.2020 20:00:00 16,8 15,3 - - 31 17 55 30 SW 998,2 5 0 1,6
04.08.2020 19:00:00 16,7 15,3 - - 31 17 57 31 SSW 998,7 4,7 0 2,8
04.08.2020 18:00:00 16,8 15,4 - - 31 17 54 29 SW 998,8 4,6 0 1,0
04.08.2020 17:00:00 16,7 15,2 - - 29 16 55 30 SSW 999,4 17 0 2,6
04.08.2020 16:00:00 16,5 14,8 - - 34 18 55 30 SSW 1000,0 12 0 1,6
04.08.2020 15:00:00 15,9 14,4 - - 28 15 54 29 SSW 1000,8 4,5 0 4,4
04.08.2020 14:00:00 15,4 13,6 - - 18 10 - - SSW 1001,7 9 0 1,2
04.08.2020 13:00:00 15,1 12,6 - - 26 14 46 25 SSW 1003,2 12 0 0,2
04.08.2020 12:00:00 14,5 12,3 - - 16 9 46 25 S 1004,1 26 0 0,2
04.08.2020 11:00:00 13,8 11,3 - - 16 9 - - SSW 1005,6 35 0 0,8
04.08.2020 10:00:00 12,8 11,6 15,2 14,2 4 2 - - E 1007,2 14 0 1,2
04.08.2020 09:00:00 12,4 11,4 - - 4 2 - - E 1008,5 14 0 1,2
04.08.2020 08:00:00 12,3 10,5 - - 5 3 - - S 1009,6 11 0 0,6
04.08.2020 07:00:00 12,3 9,5 - - 11 6 - - S 1010,2 24 0 0,0
04.08.2020 06:00:00 12,6 8,9 - - 13 7 - - S 1011,1 50 0 0,0
04.08.2020 05:00:00 11,8 8,5 - - 11 6 - - SSW 1012,0 45 0 0,0
04.08.2020 04:00:00 11,9 8,2 - - 9 5 - - SW 1012,6 50 0 0,0
04.08.2020 03:00:00 12,0 7,8 - - 11 6 - - SW 1013,5 50 0 0,0
04.08.2020 02:00:00 12,1 8,7 - - 9 5 - - SW 1014,2 40 0 0,0
04.08.2020 01:00:00 11,9 8,7 - - 11 6 - - SSW 1014,7 45 - 0,0
04.08.2020 00:00:00 11,4 8,3 - - 9 5 - - SSW 1015,0 50 0 0,0

tt = Température de l'air
td = dewpoint
tt -20cm = Température de l'air -20cm
tt -100cm = Température de l'air -100cm
ff = Vitesse du vent
fx = gusts
dd = Direction du vent
ppp = reduced air pressure
vv = visibility
sd = Ensoleillement
rr = Quantités de précipitations

stations d'obs. à proximité